M I D A S
Marine Information and Data Acquisition System
Tripno 2081 of the Zeeleeuw from 2011-04-20 06:41:16 to 2011-04-20 14:45:01
Back to CruiseResearch ActivitiesStationsMapUnderway DataData graphs

EquipmentUnitsComments
TimeDGPSUTC
LatitudeDGPSDM.mWGS84
LongitudeDGPSDM.mWGS84
SpeedMeteo Stationm/sRelative wind speed
DirectionMeteo StationdegRelative wind direction
TemperatureMeteo Stationdeg CelciusAir temperature
PressureMeteo StationPaAtmospheric pressure
HumidityMeteo Station%Relative humidity
Missing or incorrect values are displayed as -999
Metereological data collected by the RV Zeeleeuw from 2011-04-20 06:39:02 to 2011-04-20 14:47:07
                                                                                    Next 1000 lines
Time Latitude Longitude Speed Direction Temperature Pressure Humidity
2011-04-20 06:39:12 51°13.662 2°55.955 -999 339 13.6 101480 39
2011-04-20 06:39:16 51°13.662 2°55.953 -999 340 13.6 101480 39
2011-04-20 06:39:21 51°13.663 2°55.95 -999 358 13.6 101480 39
2011-04-20 06:39:26 51°13.664 2°55.947 -999 359 13.6 101480 37
2011-04-20 06:39:32 51°13.665 2°55.942 -999 359 13.6 101480 37
2011-04-20 06:39:38 51°13.667 2°55.936 -999 359 13.6 101480 39
2011-04-20 06:39:44 51°13.669 2°55.929 -999 19 13.6 101480 39
2011-04-20 06:39:49 51°13.67 2°55.923 -999 19 13.6 101480 39
2011-04-20 06:39:55 51°13.672 2°55.915 -999 19 13.6 101480 39
2011-04-20 06:40:00 51°13.674 2°55.908 -999 29 13.6 101480 39
2011-04-20 06:40:05 51°13.675 2°55.9 -999 36 13.6 101480 39
2011-04-20 06:40:10 51°13.677 2°55.892 -999 36 13.6 101480 39
2011-04-20 06:40:15 51°13.678 2°55.883 -999 39 13.6 101480 39
2011-04-20 06:40:20 51°13.68 2°55.874 -999 37 13.6 101480 39
2011-04-20 06:40:25 51°13.681 2°55.866 -999 31 13.6 101480 39
2011-04-20 06:40:30 51°13.682 2°55.857 -999 31 13.6 101480 39
2011-04-20 06:40:35 51°13.683 2°55.849 -999 31 13.6 101480 39
2011-04-20 06:40:40 51°13.684 2°55.842 -999 31 13.6 101480 39
2011-04-20 06:40:45 51°13.686 2°55.834 -999 31 13.6 101480 39
2011-04-20 06:40:50 51°13.687 2°55.826 -999 30 13.6 101480 38
2011-04-20 06:40:55 51°13.688 2°55.819 -999 29 13.6 101480 38
2011-04-20 06:41:00 51°13.688 2°55.812 -999 29 13.6 101480 38
2011-04-20 06:41:05 51°13.689 2°55.805 -999 30 13.6 101480 38
2011-04-20 06:41:10 51°13.69 2°55.798 -999 31 13.6 101480 38
2011-04-20 06:41:15 51°13.69 2°55.791 -999 33 13.6 101480 38
2011-04-20 06:41:20 51°13.69 2°55.785 -999 33 13.6 101490 38
2011-04-20 06:41:25 51°13.691 2°55.779 -999 33 13.6 101490 38
2011-04-20 06:41:30 51°13.691 2°55.772 -999 33 13.6 101480 38
2011-04-20 06:41:35 51°13.692 2°55.766 -999 33 13.6 101480 38
2011-04-20 06:41:40 51°13.692 2°55.76 -999 31 13.6 101480 38
2011-04-20 06:41:45 51°13.692 2°55.755 -999 24 13.6 101480 38
2011-04-20 06:41:50 51°13.692 2°55.751 -999 15 13.6 101480 38
2011-04-20 06:41:55 51°13.692 2°55.748 -999 11 13.6 101480 38
2011-04-20 06:42:00 51°13.692 2°55.745 -999 5 13.6 101480 39
2011-04-20 06:42:04 51°13.692 2°55.744 -999 4 13.6 101480 39
2011-04-20 06:42:09 51°13.692 2°55.742 -999 2 13.6 101480 37
2011-04-20 06:42:14 51°13.692 2°55.741 -999 358 13.6 101480 37
2011-04-20 06:42:20 51°13.693 2°55.741 -999 358 13.6 101480 39
2011-04-20 06:42:24 51°13.694 2°55.741 -999 358 13.6 101480 39
2011-04-20 06:42:29 51°13.695 2°55.742 -999 -999 13.5 101480 38
2011-04-20 06:42:34 51°13.696 2°55.743 -999 1 13.5 101480 38
2011-04-20 06:42:39 51°13.697 2°55.743 -999 3 13.5 101480 38
2011-04-20 06:42:44 51°13.698 2°55.744 -999 7 13.5 101480 38
2011-04-20 06:42:49 51°13.7 2°55.745 -999 7 13.5 101480 39
2011-04-20 06:42:54 51°13.702 2°55.746 -999 13 13.5 101480 39
2011-04-20 06:42:59 51°13.704 2°55.747 -999 13 13.5 101480 39
2011-04-20 06:43:04 51°13.706 2°55.748 -999 14 13.5 101480 39
2011-04-20 06:43:10 51°13.709 2°55.748 -999 14 13.5 101480 39
2011-04-20 06:43:15 51°13.711 2°55.748 -999 18 13.5 101480 39
2011-04-20 06:43:20 51°13.714 2°55.748 -999 17 13.5 101480 39
2011-04-20 06:43:25 51°13.717 2°55.747 -999 14 13.5 101480 39
2011-04-20 06:43:30 51°13.72 2°55.746 -999 13 13.5 101480 38
2011-04-20 06:43:35 51°13.723 2°55.744 -999 13 13.5 101480 38
2011-04-20 06:43:40 51°13.727 2°55.742 -999 13 13.5 101480 38
2011-04-20 06:43:44 51°13.73 2°55.74 -999 13 13.5 101480 38
2011-04-20 06:43:50 51°13.734 2°55.736 -999 13 13.5 101480 39
2011-04-20 06:43:55 51°13.738 2°55.732 -999 12 13.5 101480 39
2011-04-20 06:44:00 51°13.742 2°55.727 -999 1 13.5 101480 39
2011-04-20 06:44:04 51°13.746 2°55.723 -999 353 13.5 101480 39
2011-04-20 06:44:09 51°13.752 2°55.716 -999 346 13.5 101480 39
2011-04-20 06:44:15 51°13.759 2°55.707 -999 343 13.5 101480 39
2011-04-20 06:44:20 51°13.766 2°55.7 -999 338 13.5 101480 39
2011-04-20 06:44:25 51°13.773 2°55.691 -999 338 13.5 101480 39
2011-04-20 06:44:30 51°13.781 2°55.683 -999 340 13.5 101480 39
2011-04-20 06:44:35 51°13.79 2°55.674 -999 340 13.5 101480 39
2011-04-20 06:44:40 51°13.799 2°55.665 -999 338 13.5 101480 39
2011-04-20 06:44:45 51°13.809 2°55.656 -999 339 13.5 101480 39
2011-04-20 06:44:50 51°13.819 2°55.648 -999 337 13.4 101480 37
2011-04-20 06:44:55 51°13.83 2°55.639 -999 335 13.4 101480 37
2011-04-20 06:45:00 51°13.841 2°55.631 -999 334 13.4 101480 39
2011-04-20 06:45:04 51°13.85 2°55.624 -999 338 13.4 101480 39
2011-04-20 06:45:09 51°13.862 2°55.614 -999 339 13.4 101480 39
2011-04-20 06:45:15 51°13.877 2°55.603 -999 334 13.4 101480 39
2011-04-20 06:45:20 51°13.889 2°55.594 -999 337 13.4 101480 39
2011-04-20 06:45:25 51°13.902 2°55.584 -999 335 13.4 101480 39
2011-04-20 06:45:30 51°13.915 2°55.575 -999 335 13.4 101480 39
2011-04-20 06:45:35 51°13.928 2°55.566 -999 335 13.4 101480 39
2011-04-20 06:45:40 51°13.941 2°55.556 -999 337 13.4 101480 39
2011-04-20 06:45:44 51°13.952 2°55.548 -999 337 13.4 101480 39
2011-04-20 06:45:49 51°13.965 2°55.539 -999 336 13.4 101480 39
2011-04-20 06:45:54 51°13.979 2°55.53 -999 339 13.4 101480 39
2011-04-20 06:45:59 51°13.993 2°55.52 -999 338 13.4 101480 39
2011-04-20 06:46:04 51°14.006 2°55.511 -999 339 13.4 101480 39
2011-04-20 06:46:09 51°14.02 2°55.501 -999 339 13.4 101480 39
2011-04-20 06:46:14 51°14.034 2°55.492 -999 341 13.4 101480 39
2011-04-20 06:46:20 51°14.051 2°55.479 -999 339 13.4 101480 39
2011-04-20 06:46:24 51°14.062 2°55.472 -999 338 13.4 101480 39
2011-04-20 06:46:30 51°14.079 2°55.459 -999 339 13.4 101480 39
2011-04-20 06:46:35 51°14.093 2°55.449 -999 338 13.4 101480 39
2011-04-20 06:46:40 51°14.106 2°55.437 -999 337 13.4 101480 39
2011-04-20 06:46:45 51°14.12 2°55.426 -999 338 13.4 101480 39
2011-04-20 06:46:50 51°14.134 2°55.414 -999 338 13.4 101480 39
2011-04-20 06:46:55 51°14.148 2°55.403 -999 338 13.4 101480 39
2011-04-20 06:47:00 51°14.161 2°55.392 -999 338 13.4 101480 39
2011-04-20 06:47:05 51°14.174 2°55.381 -999 338 13.4 101480 39
2011-04-20 06:47:10 51°14.186 2°55.369 -999 338 13.4 101480 38
2011-04-20 06:47:15 51°14.198 2°55.358 -999 340 13.4 101480 38
2011-04-20 06:47:20 51°14.21 2°55.347 -999 341 13.4 101480 39
2011-04-20 06:47:25 51°14.22 2°55.336 -999 341 13.4 101480 39
2011-04-20 06:47:30 51°14.231 2°55.326 -999 341 13.4 101480 37
2011-04-20 06:47:35 51°14.241 2°55.316 -999 343 13.4 101480 37
2011-04-20 06:47:40 51°14.251 2°55.306 -999 343 13.4 101480 39
2011-04-20 06:47:45 51°14.26 2°55.297 -999 343 13.4 101480 39
2011-04-20 06:47:50 51°14.269 2°55.287 -999 343 13.5 101480 39
2011-04-20 06:47:55 51°14.278 2°55.278 -999 343 13.5 101480 39
2011-04-20 06:48:00 51°14.287 2°55.269 -999 343 13.4 101480 39
2011-04-20 06:48:05 51°14.295 2°55.261 -999 343 13.4 101480 39
2011-04-20 06:48:10 51°14.303 2°55.253 -999 343 13.5 101480 39
2011-04-20 06:48:15 51°14.31 2°55.245 -999 348 13.5 101480 39
2011-04-20 06:48:20 51°14.318 2°55.238 -999 37 13.5 101480 39
2011-04-20 06:48:25 51°14.325 2°55.23 -999 36 13.5 101480 39
2011-04-20 06:48:30 51°14.332 2°55.224 -999 33 13.5 101480 39
2011-04-20 06:48:35 51°14.339 2°55.217 -999 33 13.5 101480 39
2011-04-20 06:48:40 51°14.345 2°55.21 -999 37 13.5 101480 39
2011-04-20 06:48:44 51°14.35 2°55.205 -999 42 13.5 101480 39
2011-04-20 06:48:50 51°14.357 2°55.197 -999 42 13.5 101480 39
2011-04-20 06:48:55 51°14.363 2°55.191 -999 43 13.5 101480 39
2011-04-20 06:49:00 51°14.369 2°55.185 -999 43 13.5 101480 39
2011-04-20 06:49:05 51°14.375 2°55.179 -999 43 13.5 101480 39
2011-04-20 06:49:10 51°14.381 2°55.174 -999 43 13.5 101480 39
2011-04-20 06:49:15 51°14.386 2°55.168 -999 43 13.5 101480 39
2011-04-20 06:49:20 51°14.392 2°55.162 -999 40 13.5 101480 39
2011-04-20 06:49:24 51°14.396 2°55.158 -999 43 13.5 101480 39
2011-04-20 06:49:30 51°14.403 2°55.151 -999 43 13.5 101480 39
2011-04-20 06:49:35 51°14.408 2°55.144 -999 43 13.5 101480 39
2011-04-20 06:49:40 51°14.414 2°55.138 -999 43 13.5 101480 39
2011-04-20 06:49:45 51°14.42 2°55.131 -999 35 13.5 101480 39
2011-04-20 06:49:50 51°14.427 2°55.124 -999 33 13.5 101480 39
2011-04-20 06:49:55 51°14.434 2°55.116 -999 19 13.5 101480 39
2011-04-20 06:49:59 51°14.441 2°55.109 -999 8 13.5 101480 38
2011-04-20 06:50:04 51°14.449 2°55.1 -999 4 13.5 101480 38
2011-04-20 06:50:10 51°14.459 2°55.087 -999 4 13.5 101480 37
2011-04-20 06:50:15 51°14.468 2°55.075 -999 2 13.5 101480 37
2011-04-20 06:50:20 51°14.477 2°55.062 -999 344 13.5 101480 38
2011-04-20 06:50:24 51°14.484 2°55.051 -999 336 13.5 101480 38
2011-04-20 06:50:29 51°14.494 2°55.037 -999 339 13.6 101480 39
2011-04-20 06:50:35 51°14.506 2°55.018 -999 337 13.6 101480 39
2011-04-20 06:50:39 51°14.514 2°55.005 -999 336 13.6 101480 38
2011-04-20 06:50:44 51°14.524 2°54.987 -999 337 13.6 101480 38
2011-04-20 06:50:48 51°14.533 2°54.973 -999 338 13.6 101480 39
2011-04-20 06:50:53 51°14.543 2°54.954 -999 332 13.6 101480 39
2011-04-20 06:50:58 51°14.554 2°54.934 -999 330 13.6 101480 39
2011-04-20 06:51:03 51°14.564 2°54.912 -999 334 13.6 101480 39
2011-04-20 06:51:08 51°14.574 2°54.89 -999 333 13.6 101480 39
2011-04-20 06:51:12 51°14.582 2°54.872 -999 330 13.6 101480 39
2011-04-20 06:51:17 51°14.593 2°54.848 -999 332 13.6 101480 39
2011-04-20 06:51:22 51°14.603 2°54.825 -999 331 13.6 101480 39
2011-04-20 06:51:27 51°14.614 2°54.801 -999 331 13.6 101480 39
2011-04-20 06:51:32 51°14.625 2°54.778 -999 331 13.6 101480 39
2011-04-20 06:51:36 51°14.634 2°54.759 -999 333 13.6 101480 39
2011-04-20 06:51:41 51°14.646 2°54.737 -999 331 13.6 101480 39
2011-04-20 06:51:47 51°14.661 2°54.709 -999 333 13.6 101480 39
2011-04-20 06:51:51 51°14.67 2°54.691 -999 332 13.6 101480 39
2011-04-20 06:51:56 51°14.682 2°54.668 -999 333 13.6 101480 38
2011-04-20 06:52:01 51°14.694 2°54.645 -999 331 13.6 101480 38
2011-04-20 06:52:06 51°14.705 2°54.622 -999 332 13.6 101480 39
2011-04-20 06:52:12 51°14.718 2°54.593 -999 331 13.6 101480 39
2011-04-20 06:52:16 51°14.727 2°54.574 -999 332 13.6 101480 39
2011-04-20 06:52:21 51°14.738 2°54.55 -999 331 13.6 101480 39
2011-04-20 06:52:26 51°14.749 2°54.526 -999 330 13.6 101480 39
2011-04-20 06:52:32 51°14.762 2°54.496 -999 330 13.6 101480 39
2011-04-20 06:52:36 51°14.77 2°54.477 -999 330 13.6 101480 39
2011-04-20 06:52:41 51°14.781 2°54.453 -999 330 13.6 101480 39
2011-04-20 06:52:46 51°14.792 2°54.429 -999 331 13.6 101480 37
2011-04-20 06:52:52 51°14.805 2°54.401 -999 331 13.6 101480 37
2011-04-20 06:52:56 51°14.814 2°54.382 -999 332 13.6 101480 39
2011-04-20 06:53:00 51°14.824 2°54.364 -999 333 13.6 101480 39
2011-04-20 06:53:06 51°14.839 2°54.339 -999 334 13.6 101480 39
2011-04-20 06:53:12 51°14.855 2°54.313 -999 332 13.6 101480 39
2011-04-20 06:53:16 51°14.865 2°54.297 -999 333 13.5 101480 39
2011-04-20 06:53:22 51°14.881 2°54.274 -999 334 13.5 101480 39
2011-04-20 06:53:26 51°14.892 2°54.258 -999 336 13.6 101480 39
2011-04-20 06:53:31 51°14.906 2°54.24 -999 338 13.6 101480 39
2011-04-20 06:53:36 51°14.919 2°54.222 -999 337 13.6 101480 39
2011-04-20 06:53:41 51°14.933 2°54.204 -999 338 13.6 101480 39
2011-04-20 06:53:47 51°14.95 2°54.184 -999 338 13.6 101480 39
2011-04-20 06:53:52 51°14.964 2°54.167 -999 338 13.6 101480 39
2011-04-20 06:53:56 51°14.975 2°54.154 -999 338 13.5 101490 39
2011-04-20 06:54:02 51°14.991 2°54.133 -999 338 13.5 101490 39
2011-04-20 06:54:06 51°15.003 2°54.12 -999 339 13.5 101480 39
2011-04-20 06:54:12 51°15.019 2°54.099 -999 338 13.5 101480 39
2011-04-20 06:54:16 51°15.03 2°54.085 -999 338 13.5 101480 39
2011-04-20 06:54:21 51°15.044 2°54.067 -999 337 13.5 101480 39
2011-04-20 06:54:27 51°15.06 2°54.045 -999 338 13.5 101480 39
2011-04-20 06:54:32 51°15.074 2°54.026 -999 337 13.5 101480 39
2011-04-20 06:54:36 51°15.085 2°54.011 -999 337 13.5 101480 39
2011-04-20 06:54:41 51°15.099 2°53.992 -999 336 13.5 101480 39
2011-04-20 06:54:47 51°15.114 2°53.967 -999 338 13.5 101490 39
2011-04-20 06:54:52 51°15.128 2°53.948 -999 337 13.5 101490 39
2011-04-20 06:54:56 51°15.139 2°53.933 -999 338 13.5 101480 39
2011-04-20 06:55:02 51°15.156 2°53.911 -999 338 13.5 101480 39
2011-04-20 06:55:06 51°15.167 2°53.897 -999 338 13.5 101490 39
2011-04-20 06:55:12 51°15.185 2°53.877 -999 338 13.5 101490 39
2011-04-20 06:55:16 51°15.197 2°53.864 -999 338 13.4 101480 39
2011-04-20 06:55:22 51°15.215 2°53.847 -999 338 13.4 101480 39
2011-04-20 06:55:26 51°15.228 2°53.836 -999 339 13.4 101480 37
2011-04-20 06:55:32 51°15.247 2°53.82 -999 338 13.4 101480 37
2011-04-20 06:55:36 51°15.259 2°53.81 -999 339 13.4 101480 39
2011-04-20 06:55:41 51°15.276 2°53.798 -999 339 13.4 101480 39
2011-04-20 06:55:46 51°15.292 2°53.786 -999 339 13.4 101480 39
2011-04-20 06:55:52 51°15.312 2°53.772 -999 339 13.4 101480 39
2011-04-20 06:55:56 51°15.325 2°53.763 -999 340 13.4 101480 39
2011-04-20 06:56:02 51°15.344 2°53.749 -999 340 13.4 101480 39
2011-04-20 06:56:06 51°15.357 2°53.74 -999 340 13.4 101480 39
2011-04-20 06:56:12 51°15.377 2°53.725 -999 340 13.4 101480 39
2011-04-20 06:56:16 51°15.39 2°53.715 -999 340 13.4 101480 39
2011-04-20 06:56:22 51°15.409 2°53.699 -999 340 13.4 101480 39
2011-04-20 06:56:26 51°15.422 2°53.688 -999 340 13.4 101480 39
2011-04-20 06:56:32 51°15.44 2°53.67 -999 340 13.4 101480 39
2011-04-20 06:56:36 51°15.453 2°53.658 -999 340 13.4 101480 39
2011-04-20 06:56:40 51°15.465 2°53.646 -999 340 13.4 101480 39
2011-04-20 06:56:47 51°15.488 2°53.626 -999 340 13.4 101480 39
2011-04-20 06:56:52 51°15.504 2°53.614 -999 339 13.4 101480 39
2011-04-20 06:56:56 51°15.517 2°53.604 -999 342 13.4 101480 39
2011-04-20 06:57:00 51°15.531 2°53.597 -999 340 13.4 101480 39
2011-04-20 06:57:06 51°15.551 2°53.587 -999 342 13.4 101480 39
2011-04-20 06:57:12 51°15.572 2°53.581 -999 340 13.4 101480 39
2011-04-20 06:57:16 51°15.585 2°53.576 -999 341 13.3 101480 39
2011-04-20 06:57:20 51°15.599 2°53.573 -999 341 13.3 101480 39
2011-04-20 06:57:26 51°15.62 2°53.567 -999 341 13.3 101480 39
2011-04-20 06:57:32 51°15.641 2°53.561 -999 340 13.3 101480 39
2011-04-20 06:57:36 51°15.654 2°53.557 -999 340 13.3 101480 39
2011-04-20 06:57:42 51°15.675 2°53.552 -999 340 13.3 101480 39
2011-04-20 06:57:46 51°15.689 2°53.547 -999 342 13.3 101480 39
2011-04-20 06:57:52 51°15.71 2°53.541 -999 341 13.3 101480 39
2011-04-20 06:57:56 51°15.723 2°53.536 -999 341 13.3 101480 39
2011-04-20 06:58:02 51°15.744 2°53.527 -999 340 13.3 101480 39
2011-04-20 06:58:06 51°15.757 2°53.52 -999 340 13.4 101480 38
2011-04-20 06:58:12 51°15.778 2°53.509 -999 340 13.4 101480 38
2011-04-20 06:58:16 51°15.791 2°53.502 -999 340 13.3 101480 40
2011-04-20 06:58:22 51°15.811 2°53.49 -999 340 13.3 101480 40
2011-04-20 06:58:26 51°15.825 2°53.482 -999 339 13.3 101480 40
2011-04-20 06:58:32 51°15.845 2°53.471 -999 340 13.3 101480 40
2011-04-20 06:58:36 51°15.858 2°53.462 -999 339 13.4 101480 40
2011-04-20 06:58:42 51°15.878 2°53.449 -999 340 13.4 101480 40
2011-04-20 06:58:47 51°15.894 2°53.438 -999 339 13.4 101480 40
2011-04-20 06:58:52 51°15.91 2°53.426 -999 339 13.4 101480 40
2011-04-20 06:58:56 51°15.923 2°53.416 -999 339 13.4 101480 40
2011-04-20 06:59:00 51°15.936 2°53.407 -999 340 13.4 101480 40
2011-04-20 06:59:07 51°15.959 2°53.39 -999 340 13.4 101480 40
2011-04-20 06:59:12 51°15.975 2°53.378 -999 340 13.4 101480 40
2011-04-20 06:59:16 51°15.988 2°53.368 -999 339 13.4 101480 40
2011-04-20 06:59:20 51°16.001 2°53.358 -999 341 13.4 101480 40
2011-04-20 06:59:26 51°16.02 2°53.344 -999 340 13.4 101480 40
2011-04-20 06:59:32 51°16.04 2°53.331 -999 341 13.4 101480 40
2011-04-20 06:59:36 51°16.053 2°53.322 -999 341 13.4 101480 40
2011-04-20 06:59:40 51°16.067 2°53.313 -999 341 13.4 101480 40
2011-04-20 06:59:46 51°16.086 2°53.301 -999 343 13.4 101480 40
2011-04-20 06:59:52 51°16.106 2°53.289 -999 342 13.4 101480 40
2011-04-20 06:59:56 51°16.12 2°53.281 -999 342 13.4 101480 40
2011-04-20 07:00:02 51°16.14 2°53.268 -999 343 13.4 101480 40
2011-04-20 07:00:06 51°16.153 2°53.26 -999 342 13.4 101480 40
2011-04-20 07:00:12 51°16.173 2°53.246 -999 343 13.4 101480 40
2011-04-20 07:00:16 51°16.186 2°53.236 -999 342 13.4 101480 40
2011-04-20 07:00:22 51°16.205 2°53.221 -999 343 13.4 101480 40
2011-04-20 07:00:26 51°16.218 2°53.211 -999 343 13.4 101480 40
2011-04-20 07:00:32 51°16.238 2°53.196 -999 342 13.4 101480 40
2011-04-20 07:00:36 51°16.251 2°53.186 -999 341 13.4 101480 40
2011-04-20 07:00:42 51°16.271 2°53.172 -999 342 13.4 101480 40
2011-04-20 07:00:46 51°16.284 2°53.163 -999 342 13.4 101480 39
2011-04-20 07:00:52 51°16.304 2°53.149 -999 343 13.4 101480 39
2011-04-20 07:00:56 51°16.317 2°53.14 -999 343 13.4 101480 40
2011-04-20 07:01:00 51°16.331 2°53.131 -999 343 13.4 101480 40
2011-04-20 07:01:07 51°16.354 2°53.116 -999 343 13.4 101480 40
2011-04-20 07:01:12 51°16.371 2°53.104 -999 344 13.4 101480 40
2011-04-20 07:01:16 51°16.384 2°53.096 -999 344 13.3 101480 40
2011-04-20 07:01:20 51°16.397 2°53.086 -999 344 13.3 101480 40
2011-04-20 07:01:27 51°16.42 2°53.07 -999 344 13.3 101480 40
2011-04-20 07:01:32 51°16.437 2°53.057 -999 344 13.3 101480 40
2011-04-20 07:01:36 51°16.449 2°53.047 -999 344 13.3 101480 40
2011-04-20 07:01:40 51°16.462 2°53.037 -999 345 13.3 101480 40
2011-04-20 07:01:46 51°16.482 2°53.021 -999 345 13.3 101480 40
2011-04-20 07:01:52 51°16.502 2°53.006 -999 344 13.3 101480 40
2011-04-20 07:01:56 51°16.515 2°52.997 -999 344 13.3 101480 41
2011-04-20 07:02:02 51°16.535 2°52.983 -999 344 13.3 101480 41
2011-04-20 07:02:06 51°16.548 2°52.974 -999 344 13.3 101480 41
2011-04-20 07:02:12 51°16.568 2°52.96 -999 344 13.3 101480 41
2011-04-20 07:02:16 51°16.581 2°52.951 -999 345 13.3 101480 41
2011-04-20 07:02:22 51°16.602 2°52.938 -999 345 13.3 101480 41
2011-04-20 07:02:26 51°16.615 2°52.929 -999 344 13.2 101480 41
2011-04-20 07:02:32 51°16.635 2°52.916 -999 344 13.2 101480 41
2011-04-20 07:02:36 51°16.648 2°52.907 -999 345 13.2 101480 41
2011-04-20 07:02:42 51°16.667 2°52.893 -999 345 13.2 101480 41
2011-04-20 07:02:46 51°16.68 2°52.882 -999 346 13.2 101490 41
2011-04-20 07:02:52 51°16.699 2°52.866 -999 345 13.2 101490 41
2011-04-20 07:02:56 51°16.712 2°52.855 -999 346 13.2 101480 41
2011-04-20 07:03:02 51°16.731 2°52.839 -999 346 13.2 101480 41
2011-04-20 07:03:06 51°16.743 2°52.828 -999 346 13.1 101480 41
2011-04-20 07:03:12 51°16.762 2°52.811 -999 346 13.1 101480 41
2011-04-20 07:03:16 51°16.775 2°52.8 -999 346 13.1 101480 41
2011-04-20 07:03:20 51°16.787 2°52.79 -999 346 13.1 101480 41
2011-04-20 07:03:27 51°16.808 2°52.77 -999 346 13.1 101480 40
2011-04-20 07:03:32 51°16.824 2°52.757 -999 346 13.1 101480 40
2011-04-20 07:03:36 51°16.836 2°52.747 -999 346 13.1 101480 41
2011-04-20 07:03:40 51°16.849 2°52.738 -999 347 13.1 101480 41
2011-04-20 07:03:47 51°16.871 2°52.722 -999 347 13.1 101480 41
2011-04-20 07:03:52 51°16.887 2°52.712 -999 346 13.1 101480 41
2011-04-20 07:03:56 51°16.9 2°52.703 -999 346 13 101480 41
2011-04-20 07:04:01 51°16.916 2°52.692 -999 346 13 101480 41
2011-04-20 07:04:06 51°16.932 2°52.682 -999 346 13 101480 41
2011-04-20 07:04:12 51°16.952 2°52.67 -999 347 13 101480 41
2011-04-20 07:04:16 51°16.965 2°52.661 -999 346 13 101480 41
2011-04-20 07:04:21 51°16.982 2°52.651 -999 346 13 101480 41
2011-04-20 07:04:26 51°16.998 2°52.64 -999 346 13 101480 41
2011-04-20 07:04:31 51°17.014 2°52.628 -999 346 13 101480 41
2011-04-20 07:04:36 51°17.03 2°52.617 -999 347 13 101480 41
2011-04-20 07:04:41 51°17.046 2°52.604 -999 347 13 101480 41
2011-04-20 07:04:47 51°17.065 2°52.588 -999 348 12.9 101480 42
2011-04-20 07:04:52 51°17.08 2°52.575 -999 348 12.9 101480 42
2011-04-20 07:04:56 51°17.093 2°52.563 -999 348 12.9 101480 41
2011-04-20 07:05:02 51°17.111 2°52.546 -999 348 12.9 101480 41
2011-04-20 07:05:07 51°17.126 2°52.531 -999 348 12.9 101480 42
2011-04-20 07:05:11 51°17.138 2°52.518 -999 347 12.9 101480 42
2011-04-20 07:05:16 51°17.153 2°52.504 -999 347 12.9 101480 42
2011-04-20 07:05:22 51°17.172 2°52.487 -999 348 12.9 101480 42
2011-04-20 07:05:27 51°17.187 2°52.473 -999 346 12.9 101480 42
2011-04-20 07:05:32 51°17.203 2°52.46 -999 347 12.9 101480 42
2011-04-20 07:05:36 51°17.216 2°52.45 -999 347 12.8 101480 42
2011-04-20 07:05:41 51°17.232 2°52.438 -999 347 12.8 101480 42
2011-04-20 07:05:47 51°17.252 2°52.424 -999 347 12.8 101480 42
2011-04-20 07:05:52 51°17.268 2°52.413 -999 348 12.8 101480 42
2011-04-20 07:05:56 51°17.281 2°52.404 -999 348 12.8 101480 42
2011-04-20 07:06:01 51°17.297 2°52.392 -999 348 12.8 101480 42
2011-04-20 07:06:07 51°17.317 2°52.379 -999 348 12.8 101480 41
2011-04-20 07:06:12 51°17.333 2°52.367 -999 348 12.8 101480 41
2011-04-20 07:06:16 51°17.346 2°52.357 -999 348 12.8 101480 42
2011-04-20 07:06:21 51°17.362 2°52.343 -999 348 12.8 101480 42
2011-04-20 07:06:27 51°17.381 2°52.327 -999 348 12.8 101480 42
2011-04-20 07:06:31 51°17.394 2°52.315 -999 348 12.8 101480 42
2011-04-20 07:06:36 51°17.409 2°52.301 -999 348 12.7 101480 43
2011-04-20 07:06:42 51°17.428 2°52.283 -999 348 12.7 101480 43
2011-04-20 07:06:46 51°17.44 2°52.272 -999 348 12.7 101480 43
2011-04-20 07:06:51 51°17.456 2°52.257 -999 348 12.7 101480 43
2011-04-20 07:06:56 51°17.472 2°52.243 -999 348 12.7 101480 43
2011-04-20 07:07:02 51°17.491 2°52.228 -999 348 12.7 101480 43
2011-04-20 07:07:06 51°17.504 2°52.218 -999 348 12.7 101480 43
2011-04-20 07:07:12 51°17.524 2°52.203 -999 348 12.7 101480 43
2011-04-20 07:07:16 51°17.537 2°52.194 -999 348 12.7 101480 43
2011-04-20 07:07:22 51°17.557 2°52.18 -999 348 12.7 101480 43
2011-04-20 07:07:26 51°17.57 2°52.171 -999 348 12.6 101480 44
2011-04-20 07:07:32 51°17.59 2°52.157 -999 348 12.6 101480 44
2011-04-20 07:07:36 51°17.603 2°52.148 -999 348 12.6 101480 44
2011-04-20 07:07:42 51°17.622 2°52.134 -999 348 12.6 101480 44
2011-04-20 07:07:46 51°17.635 2°52.125 -999 348 12.6 101480 44
2011-04-20 07:07:52 51°17.655 2°52.11 -999 348 12.6 101480 44
2011-04-20 07:07:56 51°17.668 2°52.101 -999 348 12.6 101480 44
2011-04-20 07:08:01 51°17.684 2°52.089 -999 348 12.6 101480 44
2011-04-20 07:08:07 51°17.703 2°52.074 -999 348 12.6 101480 44
2011-04-20 07:08:12 51°17.719 2°52.062 -999 348 12.6 101480 44
2011-04-20 07:08:16 51°17.732 2°52.051 -999 349 12.6 101480 45
2011-04-20 07:08:21 51°17.748 2°52.038 -999 348 12.6 101480 45
2011-04-20 07:08:26 51°17.764 2°52.024 -999 348 12.6 101480 45
2011-04-20 07:08:32 51°17.782 2°52.008 -999 348 12.6 101480 45
2011-04-20 07:08:36 51°17.795 2°51.997 -999 348 12.6 101480 45
2011-04-20 07:08:41 51°17.81 2°51.983 -999 348 12.6 101480 45
2011-04-20 07:08:46 51°17.826 2°51.971 -999 348 12.5 101480 44
2011-04-20 07:08:51 51°17.842 2°51.958 -999 349 12.5 101480 44
2011-04-20 07:08:56 51°17.858 2°51.945 -999 349 12.6 101480 45
2011-04-20 07:09:01 51°17.874 2°51.933 -999 348 12.6 101480 45
2011-04-20 07:09:07 51°17.893 2°51.919 -999 348 12.6 101480 45
2011-04-20 07:09:11 51°17.906 2°51.91 -999 348 12.6 101480 45
2011-04-20 07:09:16 51°17.923 2°51.899 -999 349 12.5 101490 45
2011-04-20 07:09:22 51°17.942 2°51.885 -999 348 12.5 101490 45
2011-04-20 07:09:26 51°17.955 2°51.876 -999 349 12.5 101480 45
2011-04-20 07:09:31 51°17.972 2°51.865 -999 349 12.5 101480 45
2011-04-20 07:09:36 51°17.988 2°51.853 -999 349 12.5 101480 45
2011-04-20 07:09:42 51°18.008 2°51.839 -999 348 12.5 101480 45
2011-04-20 07:09:46 51°18.021 2°51.829 -999 347 12.5 101480 45
2011-04-20 07:09:52 51°18.04 2°51.813 -999 349 12.5 101480 45
2011-04-20 07:09:56 51°18.053 2°51.803 -999 350 12.5 101480 45
2011-04-20 07:10:01 51°18.068 2°51.79 -999 348 12.5 101480 45
2011-04-20 07:10:07 51°18.087 2°51.773 -999 349 12.5 101490 45
2011-04-20 07:10:12 51°18.103 2°51.758 -999 349 12.5 101490 45
2011-04-20 07:10:16 51°18.116 2°51.747 -999 348 12.5 101480 45
2011-04-20 07:10:20 51°18.129 2°51.736 -999 349 12.5 101480 45
2011-04-20 07:10:27 51°18.151 2°51.717 -999 349 12.4 101490 45
2011-04-20 07:10:32 51°18.167 2°51.703 -999 348 12.4 101490 45
2011-04-20 07:10:36 51°18.18 2°51.692 -999 349 12.4 101490 45
2011-04-20 07:10:41 51°18.196 2°51.679 -999 349 12.4 101490 45
2011-04-20 07:10:47 51°18.215 2°51.664 -999 349 12.4 101480 45
2011-04-20 07:10:52 51°18.232 2°51.652 -999 348 12.4 101480 45
2011-04-20 07:10:56 51°18.245 2°51.642 -999 348 12.4 101480 46
2011-04-20 07:11:01 51°18.261 2°51.63 -999 349 12.4 101480 46
2011-04-20 07:11:06 51°18.278 2°51.619 -999 349 12.4 101480 46
2011-04-20 07:11:11 51°18.294 2°51.606 -999 349 12.4 101480 46
2011-04-20 07:11:16 51°18.311 2°51.594 -999 349 12.4 101480 46
2011-04-20 07:11:21 51°18.327 2°51.581 -999 348 12.4 101480 46
2011-04-20 07:11:26 51°18.343 2°51.568 -999 348 12.4 101480 44
2011-04-20 07:11:32 51°18.363 2°51.552 -999 349 12.4 101480 44
2011-04-20 07:11:36 51°18.375 2°51.542 -999 349 12.4 101480 46
2011-04-20 07:11:41 51°18.391 2°51.528 -999 348 12.4 101480 46
2011-04-20 07:11:47 51°18.41 2°51.511 -999 349 12.4 101480 46
2011-04-20 07:11:52 51°18.426 2°51.498 -999 348 12.4 101480 46
2011-04-20 07:11:56 51°18.439 2°51.487 -999 348 12.4 101480 46
2011-04-20 07:12:02 51°18.458 2°51.471 -999 349 12.4 101480 46
2011-04-20 07:12:07 51°18.474 2°51.458 -999 349 12.4 101480 46
2011-04-20 07:12:11 51°18.488 2°51.448 -999 349 12.4 101480 46
2011-04-20 07:12:16 51°18.504 2°51.436 -999 349 12.4 101480 46
2011-04-20 07:12:21 51°18.52 2°51.423 -999 349 12.4 101480 46
2011-04-20 07:12:26 51°18.537 2°51.411 -999 349 12.4 101480 46
2011-04-20 07:12:32 51°18.556 2°51.396 -999 349 12.4 101480 46
2011-04-20 07:12:36 51°18.569 2°51.386 -999 348 12.4 101480 46
2011-04-20 07:12:41 51°18.585 2°51.373 -999 348 12.4 101480 46
2011-04-20 07:12:46 51°18.602 2°51.36 -999 348 12.3 101480 46
2011-04-20 07:12:52 51°18.621 2°51.345 -999 347 12.3 101480 46
2011-04-20 07:12:56 51°18.634 2°51.335 -999 348 12.3 101480 46
2011-04-20 07:13:01 51°18.65 2°51.323 -999 348 12.3 101480 46
2011-04-20 07:13:06 51°18.667 2°51.31 -999 348 12.3 101480 46
2011-04-20 07:13:12 51°18.686 2°51.295 -999 348 12.3 101480 46
2011-04-20 07:13:16 51°18.699 2°51.285 -999 348 12.3 101480 46
2011-04-20 07:13:20 51°18.712 2°51.275 -999 348 12.3 101480 46
2011-04-20 07:13:26 51°18.732 2°51.259 -999 348 12.3 101480 46
2011-04-20 07:13:32 51°18.752 2°51.244 -999 348 12.3 101480 46
2011-04-20 07:13:36 51°18.764 2°51.233 -999 347 12.3 101480 46
2011-04-20 07:13:42 51°18.784 2°51.217 -999 347 12.3 101480 46
2011-04-20 07:13:46 51°18.797 2°51.206 -999 348 12.3 101490 46
2011-04-20 07:13:52 51°18.816 2°51.19 -999 347 12.3 101490 46
2011-04-20 07:13:56 51°18.829 2°51.179 -999 347 12.3 101480 46
2011-04-20 07:14:02 51°18.848 2°51.162 -999 347 12.3 101480 46
2011-04-20 07:14:06 51°18.861 2°51.151 -999 348 12.3 101480 45
2011-04-20 07:14:12 51°18.88 2°51.135 -999 348 12.3 101480 45
2011-04-20 07:14:16 51°18.893 2°51.124 -999 347 12.3 101480 46
2011-04-20 07:14:22 51°18.913 2°51.109 -999 347 12.3 101480 46
2011-04-20 07:14:27 51°18.929 2°51.095 -999 347 12.3 101480 46
2011-04-20 07:14:32 51°18.945 2°51.082 -999 347 12.3 101480 46
2011-04-20 07:14:36 51°18.958 2°51.071 -999 347 12.3 101480 46
2011-04-20 07:14:41 51°18.974 2°51.058 -999 347 12.3 101480 46
2011-04-20 07:14:47 51°18.994 2°51.041 -999 346 12.3 101480 46
2011-04-20 07:14:52 51°19.01 2°51.028 -999 347 12.3 101480 46
2011-04-20 07:14:56 51°19.023 2°51.017 -999 347 12.3 101480 46
2011-04-20 07:15:00 51°19.036 2°51.006 -999 346 12.3 101480 46
2011-04-20 07:15:06 51°19.055 2°50.99 -999 347 12.3 101480 46
2011-04-20 07:15:12 51°19.075 2°50.974 -999 346 12.3 101480 46
2011-04-20 07:15:16 51°19.088 2°50.963 -999 346 12.3 101480 46
2011-04-20 07:15:20 51°19.101 2°50.952 -999 346 12.3 101480 46
2011-04-20 07:15:26 51°19.12 2°50.936 -999 346 12.3 101480 46
2011-04-20 07:15:32 51°19.14 2°50.92 -999 348 12.3 101480 46
2011-04-20 07:15:36 51°19.153 2°50.909 -999 347 12.3 101480 46
2011-04-20 07:15:42 51°19.172 2°50.892 -999 347 12.3 101480 46
2011-04-20 07:15:46 51°19.185 2°50.881 -999 347 12.3 101480 46
2011-04-20 07:15:52 51°19.205 2°50.865 -999 347 12.3 101480 46
2011-04-20 07:15:56 51°19.218 2°50.854 -999 347 12.3 101480 46
2011-04-20 07:16:02 51°19.237 2°50.838 -999 348 12.3 101480 46
2011-04-20 07:16:06 51°19.251 2°50.827 -999 347 12.3 101480 46
2011-04-20 07:16:12 51°19.27 2°50.811 -999 347 12.3 101480 46
2011-04-20 07:16:16 51°19.283 2°50.801 -999 348 12.4 101480 46
2011-04-20 07:16:22 51°19.303 2°50.784 -999 347 12.4 101480 46
2011-04-20 07:16:26 51°19.316 2°50.774 -999 348 12.4 101480 46
2011-04-20 07:16:32 51°19.335 2°50.758 -999 348 12.4 101480 46
2011-04-20 07:16:36 51°19.349 2°50.748 -999 348 12.4 101480 46
2011-04-20 07:16:40 51°19.362 2°50.737 -999 347 12.4 101480 46
2011-04-20 07:16:47 51°19.385 2°50.718 -999 348 12.4 101480 45
2011-04-20 07:16:52 51°19.401 2°50.705 -999 348 12.4 101480 45
2011-04-20 07:16:56 51°19.414 2°50.695 -999 349 12.4 101480 46
2011-04-20 07:17:00 51°19.427 2°50.684 -999 348 12.4 101480 46
2011-04-20 07:17:07 51°19.45 2°50.667 -999 348 12.4 101490 46
2011-04-20 07:17:12 51°19.466 2°50.655 -999 348 12.4 101490 46
2011-04-20 07:17:16 51°19.479 2°50.645 -999 347 12.4 101480 46
2011-04-20 07:17:20 51°19.492 2°50.635 -999 348 12.4 101480 46
2011-04-20 07:17:26 51°19.512 2°50.619 -999 348 12.4 101490 46
2011-04-20 07:17:32 51°19.532 2°50.604 -999 348 12.4 101490 46
2011-04-20 07:17:36 51°19.545 2°50.594 -999 348 12.4 101490 46
2011-04-20 07:17:42 51°19.565 2°50.579 -999 348 12.4 101490 46
2011-04-20 07:17:46 51°19.578 2°50.569 -999 348 12.4 101490 46
2011-04-20 07:17:52 51°19.598 2°50.555 -999 348 12.4 101490 46
2011-04-20 07:17:56 51°19.611 2°50.545 -999 349 12.4 101490 46
2011-04-20 07:18:01 51°19.628 2°50.533 -999 348 12.4 101490 46
2011-04-20 07:18:06 51°19.644 2°50.521 -999 348 12.4 101490 46
2011-04-20 07:18:12 51°19.664 2°50.506 -999 348 12.4 101490 46
2011-04-20 07:18:16 51°19.677 2°50.496 -999 349 12.4 101490 46
2011-04-20 07:18:22 51°19.697 2°50.48 -999 347 12.4 101490 46
2011-04-20 07:18:26 51°19.71 2°50.469 -999 348 12.4 101480 46
2011-04-20 07:18:32 51°19.73 2°50.453 -999 348 12.4 101480 46
2011-04-20 07:18:36 51°19.743 2°50.442 -999 347 12.4 101490 46
2011-04-20 07:18:42 51°19.763 2°50.426 -999 347 12.4 101490 46
2011-04-20 07:18:46 51°19.776 2°50.416 -999 347 12.4 101490 46
2011-04-20 07:18:52 51°19.796 2°50.4 -999 348 12.4 101490 46
2011-04-20 07:18:56 51°19.809 2°50.391 -999 347 12.4 101490 46
2011-04-20 07:19:00 51°19.823 2°50.38 -999 347 12.4 101490 46
2011-04-20 07:19:07 51°19.846 2°50.363 -999 347 12.4 101490 46
2011-04-20 07:19:12 51°19.863 2°50.351 -999 349 12.4 101490 46
2011-04-20 07:19:16 51°19.876 2°50.341 -999 348 12.4 101490 46
2011-04-20 07:19:20 51°19.889 2°50.331 -999 349 12.4 101490 46
2011-04-20 07:19:27 51°19.912 2°50.313 -999 347 12.4 101490 45
2011-04-20 07:19:32 51°19.929 2°50.3 -999 348 12.4 101490 45
2011-04-20 07:19:36 51°19.942 2°50.29 -999 347 12.4 101490 46
2011-04-20 07:19:40 51°19.956 2°50.28 -999 347 12.4 101490 46
2011-04-20 07:19:46 51°19.975 2°50.265 -999 347 12.4 101490 46
2011-04-20 07:19:52 51°19.995 2°50.249 -999 347 12.4 101490 46
2011-04-20 07:19:56 51°20.009 2°50.239 -999 347 12.4 101490 46
2011-04-20 07:20:02 51°20.029 2°50.224 -999 346 12.4 101490 46
2011-04-20 07:20:06 51°20.042 2°50.214 -999 347 12.4 101490 46
2011-04-20 07:20:12 51°20.062 2°50.2 -999 347 12.4 101490 46
2011-04-20 07:20:16 51°20.075 2°50.19 -999 348 12.4 101490 46
2011-04-20 07:20:22 51°20.095 2°50.175 -999 347 12.4 101490 46
2011-04-20 07:20:26 51°20.109 2°50.165 -999 347 12.4 101490 46
2011-04-20 07:20:32 51°20.129 2°50.149 -999 348 12.4 101490 46
2011-04-20 07:20:36 51°20.142 2°50.139 -999 347 12.4 101480 46
2011-04-20 07:20:42 51°20.162 2°50.124 -999 347 12.4 101480 46
2011-04-20 07:20:46 51°20.175 2°50.113 -999 347 12.4 101480 46
2011-04-20 07:20:52 51°20.195 2°50.098 -999 346 12.4 101480 46
2011-04-20 07:20:56 51°20.208 2°50.087 -999 346 12.4 101490 46
2011-04-20 07:21:02 51°20.228 2°50.072 -999 347 12.4 101490 46
2011-04-20 07:21:06 51°20.241 2°50.062 -999 347 12.4 101490 46
2011-04-20 07:21:12 51°20.261 2°50.046 -999 346 12.4 101490 46
2011-04-20 07:21:16 51°20.274 2°50.036 -999 347 12.4 101490 46
2011-04-20 07:21:20 51°20.288 2°50.027 -999 347 12.4 101490 46
2011-04-20 07:21:27 51°20.311 2°50.011 -999 347 12.4 101490 46
2011-04-20 07:21:32 51°20.328 2°50 -999 347 12.4 101490 46
2011-04-20 07:21:36 51°20.341 2°49.991 -999 347 12.4 101480 46
2011-04-20 07:21:40 51°20.355 2°49.982 -999 347 12.4 101480 46
2011-04-20 07:21:47 51°20.378 2°49.965 -999 347 12.4 101490 46
2011-04-20 07:21:52 51°20.394 2°49.953 -999 347 12.4 101490 46
2011-04-20 07:21:56 51°20.408 2°49.943 -999 346 12.4 101480 46
2011-04-20 07:22:00 51°20.421 2°49.933 -999 347 12.4 101480 46
2011-04-20 07:22:06 51°20.44 2°49.917 -999 346 12.4 101490 44
2011-04-20 07:22:12 51°20.46 2°49.902 -999 348 12.4 101490 44
2011-04-20 07:22:16 51°20.474 2°49.892 -999 346 12.4 101480 46
2011-04-20 07:22:22 51°20.493 2°49.876 -999 347 12.4 101480 46
2011-04-20 07:22:26 51°20.507 2°49.866 -999 346 12.4 101490 46
2011-04-20 07:22:32 51°20.527 2°49.851 -999 346 12.4 101490 46
2011-04-20 07:22:36 51°20.54 2°49.841 -999 347 12.4 101490 46
2011-04-20 07:22:42 51°20.56 2°49.827 -999 346 12.4 101490 46
2011-04-20 07:22:46 51°20.574 2°49.816 -999 346 12.4 101490 46
2011-04-20 07:22:52 51°20.594 2°49.802 -999 346 12.4 101490 46
2011-04-20 07:22:56 51°20.607 2°49.791 -999 346 12.5 101490 46
2011-04-20 07:23:02 51°20.627 2°49.776 -999 345 12.5 101490 46
2011-04-20 07:23:06 51°20.64 2°49.766 -999 346 12.5 101490 46
2011-04-20 07:23:12 51°20.661 2°49.751 -999 345 12.5 101490 46
2011-04-20 07:23:16 51°20.674 2°49.741 -999 347 12.5 101490 46
2011-04-20 07:23:20 51°20.688 2°49.731 -999 345 12.5 101490 46
2011-04-20 07:23:27 51°20.711 2°49.714 -999 347 12.5 101490 46
2011-04-20 07:23:32 51°20.727 2°49.702 -999 345 12.5 101490 46
2011-04-20 07:23:36 51°20.741 2°49.692 -999 346 12.5 101480 46
2011-04-20 07:23:40 51°20.754 2°49.682 -999 346 12.5 101480 46
2011-04-20 07:23:47 51°20.777 2°49.664 -999 346 12.5 101490 46
2011-04-20 07:23:52 51°20.794 2°49.651 -999 345 12.5 101490 46
2011-04-20 07:23:56 51°20.807 2°49.641 -999 345 12.5 101490 46
2011-04-20 07:24:00 51°20.82 2°49.63 -999 345 12.5 101490 46
2011-04-20 07:24:06 51°20.84 2°49.615 -999 345 12.5 101480 46
2011-04-20 07:24:12 51°20.86 2°49.599 -999 345 12.5 101480 46
2011-04-20 07:24:16 51°20.873 2°49.589 -999 346 12.5 101490 46
2011-04-20 07:24:20 51°20.887 2°49.579 -999 346 12.5 101490 46
2011-04-20 07:24:26 51°20.907 2°49.564 -999 345 12.5 101490 46
2011-04-20 07:24:32 51°20.927 2°49.549 -999 345 12.5 101490 46
2011-04-20 07:24:36 51°20.94 2°49.539 -999 346 12.5 101490 46
2011-04-20 07:24:42 51°20.96 2°49.523 -999 345 12.5 101490 46
2011-04-20 07:24:46 51°20.973 2°49.513 -999 345 12.6 101490 45
2011-04-20 07:24:52 51°20.993 2°49.497 -999 345 12.6 101490 45
2011-04-20 07:24:56 51°21.006 2°49.487 -999 346 12.5 101490 46
2011-04-20 07:25:02 51°21.026 2°49.471 -999 346 12.5 101490 46
2011-04-20 07:25:06 51°21.039 2°49.461 -999 346 12.6 101490 46
2011-04-20 07:25:12 51°21.059 2°49.445 -999 281 12.6 101490 46
2011-04-20 07:25:16 51°21.072 2°49.435 -999 346 12.6 101490 45
2011-04-20 07:25:22 51°21.092 2°49.419 -999 346 12.6 101490 45
2011-04-20 07:25:26 51°21.105 2°49.409 -999 346 12.6 101490 46
2011-04-20 07:25:32 51°21.125 2°49.393 -999 346 12.6 101490 46
2011-04-20 07:25:36 51°21.138 2°49.382 -999 346 12.6 101490 46
2011-04-20 07:25:40 51°21.151 2°49.371 -999 346 12.6 101490 46
2011-04-20 07:25:47 51°21.174 2°49.353 -999 345 12.6 101490 46
2011-04-20 07:25:52 51°21.191 2°49.341 -999 346 12.6 101490 46
2011-04-20 07:25:56 51°21.204 2°49.331 -999 346 12.6 101480 46
2011-04-20 07:26:00 51°21.217 2°49.321 -999 346 12.6 101480 46
2011-04-20 07:26:07 51°21.24 2°49.303 -999 345 12.6 101490 46
2011-04-20 07:26:12 51°21.257 2°49.291 -999 347 12.6 101490 46
2011-04-20 07:26:16 51°21.27 2°49.28 -999 346 12.5 101490 46
2011-04-20 07:26:20 51°21.284 2°49.27 -999 346 12.5 101490 46
2011-04-20 07:26:26 51°21.304 2°49.254 -999 345 12.6 101490 45
2011-04-20 07:26:32 51°21.324 2°49.239 -999 346 12.6 101490 45
2011-04-20 07:26:36 51°21.337 2°49.229 -999 346 12.5 101490 45
2011-04-20 07:26:42 51°21.357 2°49.213 -999 346 12.5 101490 45
2011-04-20 07:26:46 51°21.37 2°49.203 -999 346 12.5 101490 45
2011-04-20 07:26:52 51°21.39 2°49.188 -999 346 12.5 101490 45
2011-04-20 07:26:56 51°21.404 2°49.178 -999 346 12.6 101490 45
2011-04-20 07:27:02 51°21.424 2°49.163 -999 346 12.6 101490 45
2011-04-20 07:27:06 51°21.437 2°49.153 -999 347 12.6 101490 45
2011-04-20 07:27:12 51°21.457 2°49.137 -999 281 12.6 101490 45
2011-04-20 07:27:16 51°21.471 2°49.127 -999 346 12.5 101490 45
2011-04-20 07:27:22 51°21.491 2°49.111 -999 346 12.5 101490 45
2011-04-20 07:27:26 51°21.504 2°49.101 -999 347 12.5 101490 44
2011-04-20 07:27:32 51°21.524 2°49.085 -999 346 12.5 101490 44
2011-04-20 07:27:36 51°21.537 2°49.075 -999 346 12.6 101490 46
2011-04-20 07:27:42 51°21.557 2°49.059 -999 346 12.6 101490 46
2011-04-20 07:27:46 51°21.571 2°49.049 -999 347 12.5 101490 45
2011-04-20 07:27:52 51°21.591 2°49.034 -999 346 12.5 101490 45
2011-04-20 07:27:56 51°21.604 2°49.024 -999 346 12.6 101490 45
2011-04-20 07:28:00 51°21.618 2°49.014 -999 347 12.6 101490 45
2011-04-20 07:28:07 51°21.641 2°48.996 -999 346 12.6 101490 45
2011-04-20 07:28:12 51°21.658 2°48.983 -999 348 12.6 101490 45
2011-04-20 07:28:16 51°21.672 2°48.973 -999 345 12.5 101490 45
2011-04-20 07:28:20 51°21.685 2°48.962 -999 346 12.5 101490 45
2011-04-20 07:28:26 51°21.705 2°48.947 -999 345 12.6 101490 45
2011-04-20 07:28:32 51°21.725 2°48.931 -999 346 12.6 101490 45
2011-04-20 07:28:36 51°21.739 2°48.921 -999 347 12.5 101490 45
2011-04-20 07:28:40 51°21.752 2°48.91 -999 347 12.5 101490 45
2011-04-20 07:28:46 51°21.773 2°48.894 -999 347 12.5 101490 45
2011-04-20 07:28:52 51°21.793 2°48.879 -999 346 12.5 101490 45
2011-04-20 07:28:56 51°21.806 2°48.869 -999 346 12.5 101490 45
2011-04-20 07:29:02 51°21.827 2°48.853 -999 347 12.5 101490 45
2011-04-20 07:29:06 51°21.84 2°48.843 -999 347 12.5 101490 45
2011-04-20 07:29:12 51°21.861 2°48.829 -999 282 12.5 101490 45
2011-04-20 07:29:16 51°21.874 2°48.819 -999 347 12.5 101490 45
2011-04-20 07:29:22 51°21.894 2°48.804 -999 347 12.5 101490 45
2011-04-20 07:29:26 51°21.908 2°48.793 -999 347 12.5 101490 45
2011-04-20 07:29:32 51°21.928 2°48.778 -999 347 12.5 101490 45
2011-04-20 07:29:36 51°21.942 2°48.768 -999 347 12.6 101490 45
2011-04-20 07:29:42 51°21.962 2°48.752 -999 345 12.6 101490 45
2011-04-20 07:29:46 51°21.975 2°48.741 -999 347 12.5 101490 45
2011-04-20 07:29:52 51°21.996 2°48.725 -999 348 12.5 101490 45
2011-04-20 07:29:56 51°22.009 2°48.715 -999 347 12.5 101490 45
2011-04-20 07:30:02 51°22.03 2°48.701 -999 347 12.5 101490 45
2011-04-20 07:30:07 51°22.047 2°48.688 -999 346 12.6 101490 44
2011-04-20 07:30:12 51°22.064 2°48.676 -999 348 12.6 101490 44
2011-04-20 07:30:16 51°22.077 2°48.666 -999 348 12.6 101490 45
2011-04-20 07:30:20 51°22.091 2°48.656 -999 348 12.6 101490 45
2011-04-20 07:30:27 51°22.115 2°48.638 -999 348 12.6 101490 45
2011-04-20 07:30:32 51°22.132 2°48.626 -999 347 12.6 101490 45
2011-04-20 07:30:36 51°22.145 2°48.615 -999 348 12.5 101490 45
2011-04-20 07:30:40 51°22.159 2°48.605 -999 348 12.5 101490 45
2011-04-20 07:30:46 51°22.179 2°48.59 -999 348 12.5 101490 45
2011-04-20 07:30:52 51°22.2 2°48.576 -999 348 12.5 101490 45
2011-04-20 07:30:56 51°22.213 2°48.566 -999 348 12.5 101490 45
2011-04-20 07:31:00 51°22.227 2°48.556 -999 348 12.5 101490 45
2011-04-20 07:31:06 51°22.247 2°48.541 -999 348 12.5 101490 45
2011-04-20 07:31:12 51°22.268 2°48.526 -999 282 12.5 101490 45
2011-04-20 07:31:16 51°22.281 2°48.516 -999 348 12.5 101490 45
2011-04-20 07:31:22 51°22.302 2°48.501 -999 349 12.5 101490 45
2011-04-20 07:31:26 51°22.315 2°48.491 -999 349 12.5 101490 45
2011-04-20 07:31:32 51°22.335 2°48.475 -999 348 12.5 101490 45
2011-04-20 07:31:36 51°22.349 2°48.465 -999 348 12.4 101490 45
2011-04-20 07:31:42 51°22.369 2°48.45 -999 348 12.4 101490 45
2011-04-20 07:31:46 51°22.383 2°48.44 -999 348 12.4 101490 45
2011-04-20 07:31:52 51°22.403 2°48.425 -999 348 12.4 101490 45
2011-04-20 07:31:56 51°22.417 2°48.415 -999 349 12.4 101490 45
2011-04-20 07:32:02 51°22.437 2°48.4 -999 349 12.4 101490 45
2011-04-20 07:32:06 51°22.451 2°48.39 -999 349 12.4 101490 46
2011-04-20 07:32:12 51°22.471 2°48.376 -999 349 12.4 101490 46
2011-04-20 07:32:16 51°22.484 2°48.366 -999 349 12.4 101490 46
2011-04-20 07:32:22 51°22.504 2°48.35 -999 349 12.4 101490 46
2011-04-20 07:32:27 51°22.521 2°48.338 -999 349 12.4 101490 46
2011-04-20 07:32:32 51°22.537 2°48.325 -999 348 12.4 101490 46
2011-04-20 07:32:36 51°22.551 2°48.315 -999 349 12.4 101490 46
2011-04-20 07:32:40 51°22.564 2°48.305 -999 349 12.4 101490 46
2011-04-20 07:32:47 51°22.588 2°48.288 -999 349 12.4 101490 44
2011-04-20 07:32:52 51°22.605 2°48.276 -999 348 12.4 101490 44
2011-04-20 07:32:56 51°22.618 2°48.266 -999 349 12.4 101490 45
2011-04-20 07:33:00 51°22.632 2°48.257 -999 348 12.4 101490 45
2011-04-20 07:33:06 51°22.652 2°48.242 -999 349 12.4 101490 46
2011-04-20 07:33:12 51°22.672 2°48.228 -999 349 12.4 101490 46
2011-04-20 07:33:16 51°22.686 2°48.218 -999 349 12.3 101490 45
2011-04-20 07:33:22 51°22.706 2°48.204 -999 348 12.3 101490 45
2011-04-20 07:33:26 51°22.719 2°48.195 -999 348 12.3 101490 46
2011-04-20 07:33:32 51°22.739 2°48.18 -999 348 12.3 101490 46
2011-04-20 07:33:36 51°22.752 2°48.17 -999 348 12.4 101490 46
2011-04-20 07:33:42 51°22.772 2°48.155 -999 348 12.4 101490 46
2011-04-20 07:33:46 51°22.785 2°48.145 -999 350 12.3 101490 46
2011-04-20 07:33:52 51°22.806 2°48.132 -999 349 12.3 101490 46
2011-04-20 07:33:56 51°22.819 2°48.122 -999 349 12.3 101490 46
2011-04-20 07:34:02 51°22.839 2°48.108 -999 348 12.3 101490 46
2011-04-20 07:34:06 51°22.852 2°48.099 -999 347 12.3 101490 46
2011-04-20 07:34:12 51°22.872 2°48.084 -999 349 12.3 101490 46
2011-04-20 07:34:16 51°22.886 2°48.075 -999 349 12.3 101500 46
2011-04-20 07:34:22 51°22.906 2°48.06 -999 349 12.3 101500 46
2011-04-20 07:34:26 51°22.919 2°48.05 -999 349 12.3 101490 46
2011-04-20 07:34:32 51°22.939 2°48.035 -999 349 12.3 101490 46
2011-04-20 07:34:36 51°22.952 2°48.025 -999 350 12.3 101490 46
2011-04-20 07:34:40 51°22.965 2°48.015 -999 350 12.3 101490 46
2011-04-20 07:34:47 51°22.989 2°47.999 -999 349 12.3 101500 46
2011-04-20 07:34:52 51°23.005 2°47.986 -999 349 12.3 101500 46
2011-04-20 07:34:56 51°23.018 2°47.977 -999 349 12.3 101500 46
2011-04-20 07:35:00 51°23.031 2°47.967 -999 349 12.3 101500 46
2011-04-20 07:35:06 51°23.051 2°47.952 -999 349 12.3 101490 46
2011-04-20 07:35:12 51°23.071 2°47.937 -999 350 12.3 101490 46
2011-04-20 07:35:16 51°23.084 2°47.926 -999 348 12.3 101490 46
2011-04-20 07:35:20 51°23.097 2°47.916 -999 348 12.3 101490 46
2011-04-20 07:35:26 51°23.117 2°47.901 -999 349 12.2 101490 44
2011-04-20 07:35:32 51°23.137 2°47.886 -999 348 12.2 101490 44
2011-04-20 07:35:36 51°23.15 2°47.877 -999 348 12.3 101490 46
2011-04-20 07:35:42 51°23.17 2°47.862 -999 349 12.3 101490 46
2011-04-20 07:35:46 51°23.183 2°47.852 -999 350 12.2 101500 46
2011-04-20 07:35:52 51°23.203 2°47.837 -999 348 12.2 101500 46
2011-04-20 07:35:56 51°23.216 2°47.826 -999 348 12.2 101500 46
2011-04-20 07:36:02 51°23.236 2°47.811 -999 348 12.2 101500 46
2011-04-20 07:36:06 51°23.249 2°47.801 -999 350 12.2 101490 46
2011-04-20 07:36:12 51°23.269 2°47.786 -999 349 12.2 101490 46
2011-04-20 07:36:16 51°23.282 2°47.776 -999 350 12.2 101500 46
2011-04-20 07:36:22 51°23.302 2°47.762 -999 348 12.2 101500 46
2011-04-20 07:36:26 51°23.315 2°47.752 -999 350 12.2 101500 46
2011-04-20 07:36:32 51°23.335 2°47.738 -999 349 12.2 101500 46
2011-04-20 07:36:36 51°23.349 2°47.728 -999 350 12.2 101500 46
2011-04-20 07:36:40 51°23.362 2°47.719 -999 350 12.2 101500 46
2011-04-20 07:36:47 51°23.385 2°47.702 -999 351 12.2 101490 46
2011-04-20 07:36:52 51°23.402 2°47.689 -999 350 12.2 101490 46
2011-04-20 07:36:56 51°23.415 2°47.679 -999 351 12.2 101490 46
2011-04-20 07:37:00 51°23.428 2°47.669 -999 350 12.2 101490 46
2011-04-20 07:37:07 51°23.451 2°47.652 -999 349 12.2 101490 46
2011-04-20 07:37:12 51°23.468 2°47.64 -999 349 12.2 101490 46
2011-04-20 07:37:16 51°23.481 2°47.629 -999 347 12.2 101490 46
2011-04-20 07:37:20 51°23.494 2°47.619 -999 347 12.2 101490 46
2011-04-20 07:37:26 51°23.514 2°47.604 -999 347 12.2 101490 46
2011-04-20 07:37:32 51°23.533 2°47.588 -999 349 12.2 101490 46
2011-04-20 07:37:36 51°23.547 2°47.579 -999 349 12.2 101490 46
2011-04-20 07:37:40 51°23.56 2°47.569 -999 349 12.2 101490 46
2011-04-20 07:37:46 51°23.58 2°47.554 -999 348 12.2 101500 46
2011-04-20 07:37:52 51°23.599 2°47.538 -999 350 12.2 101500 46
2011-04-20 07:37:56 51°23.613 2°47.528 -999 348 12.2 101490 46
2011-04-20 07:38:02 51°23.632 2°47.513 -999 349 12.2 101490 46
2011-04-20 07:38:06 51°23.645 2°47.502 -999 349 12.2 101500 44
2011-04-20 07:38:12 51°23.665 2°47.487 -999 349 12.2 101500 44
2011-04-20 07:38:16 51°23.678 2°47.477 -999 348 12.2 101490 46
2011-04-20 07:38:22 51°23.698 2°47.462 -999 349 12.2 101490 46
2011-04-20 07:38:26 51°23.711 2°47.452 -999 350 12.2 101500 46
2011-04-20 07:38:32 51°23.731 2°47.437 -999 350 12.2 101500 46
2011-04-20 07:38:36 51°23.744 2°47.427 -999 350 12.2 101490 46
2011-04-20 07:38:42 51°23.764 2°47.413 -999 349 12.2 101490 46
2011-04-20 07:38:46 51°23.777 2°47.403 -999 349 12.2 101500 46
2011-04-20 07:38:52 51°23.797 2°47.387 -999 348 12.2 101500 46
2011-04-20 07:38:56 51°23.81 2°47.377 -999 348 12.2 101490 46
2011-04-20 07:39:00 51°23.823 2°47.366 -999 347 12.2 101490 46
2011-04-20 07:39:07 51°23.846 2°47.347 -999 349 12.2 101500 46
2011-04-20 07:39:12 51°23.862 2°47.334 -999 349 12.2 101500 46
2011-04-20 07:39:16 51°23.876 2°47.324 -999 349 12.2 101490 46
2011-04-20 07:39:20 51°23.889 2°47.313 -999 349 12.2 101490 46
2011-04-20 07:39:27 51°23.912 2°47.295 -999 349 12.2 101500 46
2011-04-20 07:39:32 51°23.928 2°47.282 -999 349 12.2 101500 46
2011-04-20 07:39:36 51°23.941 2°47.272 -999 348 12.2 101490 46
2011-04-20 07:39:40 51°23.955 2°47.262 -999 349 12.2 101490 46
2011-04-20 07:39:46 51°23.974 2°47.247 -999 349 12.2 101500 46
2011-04-20 07:39:52 51°23.994 2°47.231 -999 350 12.2 101500 46
2011-04-20 07:39:56 51°24.007 2°47.221 -999 349 12.1 101500 46
2011-04-20 07:40:02 51°24.027 2°47.206 -999 349 12.1 101500 46
2011-04-20 07:40:06 51°24.04 2°47.195 -999 350 12.1 101490 46
2011-04-20 07:40:12 51°24.06 2°47.18 -999 349 12.1 101490 46
2011-04-20 07:40:16 51°24.073 2°47.17 -999 350 12.1 101490 46
2011-04-20 07:40:21 51°24.09 2°47.157 -999 349 12.1 101490 46
2011-04-20 07:40:26 51°24.106 2°47.144 -999 350 12.1 101500 46
2011-04-20 07:40:32 51°24.126 2°47.129 -999 350 12.1 101500 46
2011-04-20 07:40:36 51°24.139 2°47.118 -999 349 12.1 101490 46
2011-04-20 07:40:42 51°24.158 2°47.102 -999 349 12.1 101490 46
2011-04-20 07:40:46 51°24.171 2°47.092 -999 350 12.1 101500 45
2011-04-20 07:40:52 51°24.191 2°47.076 -999 350 12.1 101500 45
2011-04-20 07:40:56 51°24.204 2°47.066 -999 350 12.1 101500 46
2011-04-20 07:41:00 51°24.217 2°47.056 -999 350 12.1 101500 46
2011-04-20 07:41:06 51°24.237 2°47.041 -999 350 12.1 101500 46
2011-04-20 07:41:12 51°24.257 2°47.026 -999 348 12.1 101500 46
2011-04-20 07:41:16 51°24.27 2°47.016 -999 349 12.1 101490 46
2011-04-20 07:41:20 51°24.283 2°47.006 -999 349 12.1 101490 46
2011-04-20 07:41:27 51°24.306 2°46.989 -999 349 12.1 101490 46
2011-04-20 07:41:32 51°24.323 2°46.976 -999 349 12.1 101490 46
2011-04-20 07:41:36 51°24.336 2°46.966 -999 350 12.1 101490 46
2011-04-20 07:41:40 51°24.349 2°46.956 -999 350 12.1 101490 46
2011-04-20 07:41:46 51°24.369 2°46.941 -999 349 12.1 101500 46
2011-04-20 07:41:52 51°24.389 2°46.925 -999 350 12.1 101500 46
2011-04-20 07:41:56 51°24.402 2°46.915 -999 349 12.1 101500 46
2011-04-20 07:42:00 51°24.415 2°46.905 -999 349 12.1 101500 46
2011-04-20 07:42:06 51°24.435 2°46.889 -999 349 12.1 101500 46
2011-04-20 07:42:12 51°24.455 2°46.874 -999 350 12.1 101500 46
2011-04-20 07:42:16 51°24.468 2°46.864 -999 349 12.1 101490 46
2011-04-20 07:42:20 51°24.481 2°46.854 -999 349 12.1 101490 46
2011-04-20 07:42:26 51°24.501 2°46.839 -999 349 12.1 101500 46
2011-04-20 07:42:32 51°24.521 2°46.824 -999 349 12.1 101500 46
2011-04-20 07:42:36 51°24.534 2°46.813 -999 349 12 101500 46
2011-04-20 07:42:42 51°24.553 2°46.798 -999 350 12 101500 46
2011-04-20 07:42:46 51°24.567 2°46.787 -999 349 12 101500 46
2011-04-20 07:42:52 51°24.586 2°46.772 -999 349 12 101500 46
2011-04-20 07:42:56 51°24.599 2°46.762 -999 349 12.1 101490 46
2011-04-20 07:43:02 51°24.619 2°46.747 -999 350 12.1 101490 46
2011-04-20 07:43:06 51°24.632 2°46.737 -999 349 12.1 101490 46
2011-04-20 07:43:12 51°24.652 2°46.722 -999 349 12.1 101490 46
2011-04-20 07:43:16 51°24.665 2°46.712 -999 350 12 101490 46
2011-04-20 07:43:20 51°24.678 2°46.702 -999 349 12 101490 46
2011-04-20 07:43:26 51°24.697 2°46.686 -999 350 12.1 101490 45
2011-04-20 07:43:32 51°24.717 2°46.671 -999 350 12.1 101490 45
2011-04-20 07:43:36 51°24.73 2°46.661 -999 348 12 101490 46
2011-04-20 07:43:40 51°24.743 2°46.65 -999 349 12 101490 46
2011-04-20 07:43:46 51°24.763 2°46.635 -999 349 12 101490 46
2011-04-20 07:43:52 51°24.783 2°46.62 -999 350 12 101490 46
2011-04-20 07:43:56 51°24.796 2°46.61 -999 349 12 101500 46
2011-04-20 07:44:00 51°24.809 2°46.599 -999 350 12 101500 46
2011-04-20 07:44:07 51°24.832 2°46.581 -999 349 12 101500 46
2011-04-20 07:44:12 51°24.848 2°46.569 -999 349 12 101500 46
2011-04-20 07:44:16 51°24.861 2°46.559 -999 350 12 101490 46
2011-04-20 07:44:20 51°24.875 2°46.549 -999 348 12 101490 46
2011-04-20 07:44:26 51°24.894 2°46.534 -999 349 12 101500 46
2011-04-20 07:44:32 51°24.914 2°46.518 -999 350 12 101500 46
2011-04-20 07:44:36 51°24.927 2°46.508 -999 348 12 101500 46
2011-04-20 07:44:42 51°24.947 2°46.493 -999 349 12 101500 46
2011-04-20 07:44:46 51°24.96 2°46.483 -999 349 12 101490 46
2011-04-20 07:44:52 51°24.98 2°46.467 -999 349 12 101490 46
2011-04-20 07:44:56 51°24.993 2°46.457 -999 349 12 101490 46
2011-04-20 07:45:02 51°25.013 2°46.442 -999 349 12 101490 46
2011-04-20 07:45:06 51°25.026 2°46.432 -999 349 12 101490 46
2011-04-20 07:45:12 51°25.046 2°46.417 -999 349 12 101490 46
2011-04-20 07:45:16 51°25.059 2°46.407 -999 350 12 101500 46
2011-04-20 07:45:22 51°25.079 2°46.391 -999 349 12 101500 46
2011-04-20 07:45:26 51°25.092 2°46.381 -999 349 12 101500 46
2011-04-20 07:45:32 51°25.112 2°46.365 -999 349 12 101500 46
2011-04-20 07:45:36 51°25.125 2°46.355 -999 349 12 101500 46
2011-04-20 07:45:42 51°25.145 2°46.339 -999 349 12 101500 46
2011-04-20 07:45:46 51°25.158 2°46.329 -999 349 12 101500 46
2011-04-20 07:45:52 51°25.178 2°46.314 -999 348 12 101500 46
2011-04-20 07:45:56 51°25.191 2°46.304 -999 349 12 101490 46
2011-04-20 07:46:00 51°25.205 2°46.294 -999 349 12 101490 46
2011-04-20 07:46:07 51°25.228 2°46.277 -999 349 12 101500 45
2011-04-20 07:46:12 51°25.245 2°46.264 -999 281 12 101500 45
2011-04-20 07:46:16 51°25.258 2°46.254 -999 349 12 101500 46
2011-04-20 07:46:20 51°25.271 2°46.244 -999 350 12 101500 46
2011-04-20 07:46:26 51°25.291 2°46.228 -999 350 12 101490 46
2011-04-20 07:46:32 51°25.311 2°46.213 -999 349 12 101490 46
2011-04-20 07:46:36 51°25.324 2°46.203 -999 349 12 101490 46
2011-04-20 07:46:40 51°25.337 2°46.192 -999 348 12 101490 46
2011-04-20 07:46:46 51°25.357 2°46.177 -999 348 12 101490 46
2011-04-20 07:46:52 51°25.377 2°46.162 -999 350 12 101490 46
2011-04-20 07:46:56 51°25.39 2°46.151 -999 349 12 101490 46
2011-04-20 07:47:02 51°25.41 2°46.136 -999 349 12 101490 46
2011-04-20 07:47:06 51°25.424 2°46.125 -999 349 12 101500 46
2011-04-20 07:47:12 51°25.443 2°46.11 -999 349 12 101500 46
2011-04-20 07:47:16 51°25.457 2°46.1 -999 350 12 101490 46
2011-04-20 07:47:22 51°25.477 2°46.085 -999 349 12 101490 46
2011-04-20 07:47:26 51°25.49 2°46.075 -999 348 11.9 101490 46
2011-04-20 07:47:32 51°25.51 2°46.059 -999 350 11.9 101490 46
2011-04-20 07:47:36 51°25.524 2°46.05 -999 349 12 101500 46
2011-04-20 07:47:42 51°25.544 2°46.035 -999 349 12 101500 46
2011-04-20 07:47:46 51°25.557 2°46.025 -999 348 11.9 101500 46
2011-04-20 07:47:52 51°25.577 2°46.01 -999 349 11.9 101500 46
2011-04-20 07:47:56 51°25.59 2°45.999 -999 348 11.9 101500 46
2011-04-20 07:48:02 51°25.61 2°45.984 -999 349 11.9 101500 46
2011-04-20 07:48:07 51°25.627 2°45.972 -999 348 11.9 101490 46
2011-04-20 07:48:12 51°25.644 2°45.96 -999 349 11.9 101490 46
2011-04-20 07:48:16 51°25.657 2°45.95 -999 348 11.9 101500 46
2011-04-20 07:48:21 51°25.673 2°45.938 -999 349 11.9 101500 46
2011-04-20 07:48:26 51°25.69 2°45.925 -999 348 11.9 101500 46
2011-04-20 07:48:32 51°25.71 2°45.909 -999 349 11.9 101500 46
2011-04-20 07:48:36 51°25.723 2°45.899 -999 346 11.9 101500 46
2011-04-20 07:48:41 51°25.739 2°45.887 -999 348 11.9 101500 46
2011-04-20 07:48:46 51°25.756 2°45.874 -999 347 11.9 101500 45
2011-04-20 07:48:52 51°25.776 2°45.86 -999 347 11.9 101500 45
2011-04-20 07:48:56 51°25.789 2°45.85 -999 347 12 101500 46
2011-04-20 07:49:01 51°25.805 2°45.837 -999 347 12 101500 46
2011-04-20 07:49:06 51°25.822 2°45.825 -999 347 11.9 101490 46
2011-04-20 07:49:12 51°25.842 2°45.81 -999 282 11.9 101490 46
2011-04-20 07:49:16 51°25.855 2°45.8 -999 347 12 101490 46
2011-04-20 07:49:21 51°25.871 2°45.787 -999 348 12 101490 46
2011-04-20 07:49:26 51°25.888 2°45.775 -999 347 12 101500 46
2011-04-20 07:49:32 51°25.907 2°45.759 -999 348 12 101500 46
2011-04-20 07:49:36 51°25.921 2°45.75 -999 346 11.9 101490 46
2011-04-20 07:49:41 51°25.937 2°45.737 -999 347 11.9 101490 46
2011-04-20 07:49:47 51°25.957 2°45.723 -999 347 12 101490 46
2011-04-20 07:49:52 51°25.974 2°45.71 -999 347 12 101490 46
2011-04-20 07:49:56 51°25.987 2°45.701 -999 348 12 101500 46
2011-04-20 07:50:01 51°26.004 2°45.689 -999 348 12 101500 46
2011-04-20 07:50:07 51°26.024 2°45.674 -999 347 12 101490 46
2011-04-20 07:50:12 51°26.04 2°45.662 -999 347 12 101490 46
2011-04-20 07:50:16 51°26.053 2°45.652 -999 346 12 101500 46
2011-04-20 07:50:21 51°26.07 2°45.64 -999 347 12 101500 46
2011-04-20 07:50:27 51°26.09 2°45.624 -999 347 12 101490 46
2011-04-20 07:50:32 51°26.106 2°45.611 -999 347 12 101490 46
2011-04-20 07:50:36 51°26.119 2°45.601 -999 347 12 101500 46
2011-04-20 07:50:41 51°26.136 2°45.588 -999 347 12 101500 46
2011-04-20 07:50:47 51°26.155 2°45.573 -999 348 12 101500 46
2011-04-20 07:50:52 51°26.172 2°45.561 -999 347 12 101500 46
2011-04-20 07:50:56 51°26.185 2°45.551 -999 348 12 101500 46
2011-04-20 07:51:02 51°26.205 2°45.537 -999 346 12 101500 46
2011-04-20 07:51:06 51°26.218 2°45.527 -999 347 12 101490 46
2011-04-20 07:51:12 51°26.238 2°45.513 -999 282 12 101490 46
2011-04-20 07:51:16 51°26.252 2°45.503 -999 347 11.9 101500 46
2011-04-20 07:51:21 51°26.268 2°45.49 -999 347 11.9 101500 46
2011-04-20 07:51:26 51°26.285 2°45.478 -999 347 12 101500 45
2011-04-20 07:51:32 51°26.305 2°45.463 -999 346 12 101500 45
2011-04-20 07:51:36 51°26.318 2°45.453 -999 346 11.9 101500 46
2011-04-20 07:51:41 51°26.335 2°45.441 -999 346 11.9 101500 46
2011-04-20 07:51:46 51°26.351 2°45.429 -999 347 11.9 101490 46
2011-04-20 07:51:52 51°26.371 2°45.414 -999 347 11.9 101490 46
2011-04-20 07:51:56 51°26.384 2°45.404 -999 345 11.9 101500 46
2011-04-20 07:52:01 51°26.401 2°45.391 -999 345 11.9 101500 46
2011-04-20 07:52:06 51°26.418 2°45.379 -999 346 11.9 101500 46
2011-04-20 07:52:12 51°26.438 2°45.365 -999 346 11.9 101500 46
2011-04-20 07:52:16 51°26.451 2°45.354 -999 347 11.9 101500 46
2011-04-20 07:52:21 51°26.468 2°45.342 -999 347 11.9 101500 46
2011-04-20 07:52:27 51°26.487 2°45.328 -999 347 12 101490 46
2011-04-20 07:52:32 51°26.504 2°45.316 -999 347 12 101490 46
2011-04-20 07:52:36 51°26.517 2°45.306 -999 347 12 101500 46
2011-04-20 07:52:41 51°26.534 2°45.294 -999 347 12 101500 46
2011-04-20 07:52:46 51°26.551 2°45.282 -999 347 11.9 101490 46
2011-04-20 07:52:52 51°26.571 2°45.267 -999 348 11.9 101490 46
2011-04-20 07:52:56 51°26.584 2°45.258 -999 347 11.9 101490 46
2011-04-20 07:53:01 51°26.6 2°45.245 -999 347 11.9 101490 46
2011-04-20 07:53:06 51°26.617 2°45.234 -999 346 11.9 101500 46
2011-04-20 07:53:12 51°26.637 2°45.219 -999 282 11.9 101500 46
2011-04-20 07:53:16 51°26.65 2°45.209 -999 346 11.9 101490 46
2011-04-20 07:53:21 51°26.666 2°45.197 -999 346 11.9 101490 46
2011-04-20 07:53:26 51°26.683 2°45.184 -999 346 11.9 101500 46
2011-04-20 07:53:32 51°26.702 2°45.169 -999 345 11.9 101500 46
2011-04-20 07:53:36 51°26.715 2°45.158 -999 346 11.9 101490 46
2011-04-20 07:53:41 51°26.731 2°45.146 -999 345 11.9 101490 46
2011-04-20 07:53:46 51°26.747 2°45.133 -999 347 11.9 101500 46
2011-04-20 07:53:52 51°26.767 2°45.118 -999 345 11.9 101500 46
2011-04-20 07:53:56 51°26.78 2°45.108 -999 347 11.9 101500 46
2011-04-20 07:54:01 51°26.796 2°45.096 -999 345 11.9 101500 46
2011-04-20 07:54:06 51°26.812 2°45.084 -999 347 11.9 101500 45
2011-04-20 07:54:12 51°26.831 2°45.069 -999 345 11.9 101500 45
2011-04-20 07:54:16 51°26.844 2°45.059 -999 346 11.9 101500 46
2011-04-20 07:54:21 51°26.86 2°45.047 -999 347 11.9 101500 46
2011-04-20 07:54:27 51°26.88 2°45.032 -999 345 11.9 101500 46
2011-04-20 07:54:32 51°26.896 2°45.02 -999 347 11.9 101500 46
2011-04-20 07:54:36 51°26.909 2°45.009 -999 345 11.9 101490 46
2011-04-20 07:54:41 51°26.925 2°44.997 -999 345 11.9 101490 46
2011-04-20 07:54:47 51°26.944 2°44.982 -999 345 11.9 101500 46
2011-04-20 07:54:52 51°26.961 2°44.97 -999 346 11.9 101500 46
2011-04-20 07:54:56 51°26.974 2°44.96 -999 345 11.9 101500 46
2011-04-20 07:55:01 51°26.99 2°44.948 -999 346 11.9 101500 46
2011-04-20 07:55:07 51°27.009 2°44.933 -999 346 11.9 101500 46
2011-04-20 07:55:12 51°27.026 2°44.921 -999 282 11.9 101500 46
2011-04-20 07:55:16 51°27.038 2°44.91 -999 344 11.9 101500 46
2011-04-20 07:55:21 51°27.054 2°44.898 -999 345 11.9 101500 46
2011-04-20 07:55:26 51°27.071 2°44.885 -999 345 11.9 101500 46
2011-04-20 07:55:32 51°27.09 2°44.87 -999 345 11.9 101500 46
2011-04-20 07:55:36 51°27.103 2°44.86 -999 345 11.9 101500 46
2011-04-20 07:55:41 51°27.119 2°44.847 -999 345 11.9 101500 46
2011-04-20 07:55:46 51°27.135 2°44.835 -999 345 11.9 101500 46
2011-04-20 07:55:52 51°27.155 2°44.82 -999 345 11.9 101500 46
2011-04-20 07:55:56 51°27.168 2°44.81 -999 345 11.9 101500 46
2011-04-20 07:56:01 51°27.184 2°44.798 -999 345 11.9 101500 46
2011-04-20 07:56:06 51°27.201 2°44.786 -999 344 11.9 101500 46
2011-04-20 07:56:12 51°27.22 2°44.771 -999 345 11.9 101500 46
2011-04-20 07:56:16 51°27.233 2°44.761 -999 345 11.9 101500 46
2011-04-20 07:56:21 51°27.25 2°44.75 -999 345 11.9 101500 46
2011-04-20 07:56:26 51°27.266 2°44.737 -999 345 11.9 101500 46
2011-04-20 07:56:32 51°27.286 2°44.724 -999 344 11.9 101500 46
2011-04-20 07:56:36 51°27.299 2°44.713 -999 345 11.9 101500 46
2011-04-20 07:56:41 51°27.315 2°44.702 -999 344 11.9 101500 46
2011-04-20 07:56:47 51°27.335 2°44.686 -999 345 11.9 101500 45
2011-04-20 07:56:52 51°27.351 2°44.674 -999 342 11.9 101500 45
2011-04-20 07:56:56 51°27.364 2°44.663 -999 344 11.9 101500 46
2011-04-20 07:57:01 51°27.381 2°44.652 -999 342 11.9 101500 46
2011-04-20 07:57:07 51°27.4 2°44.636 -999 345 11.9 101500 46
2011-04-20 07:57:12 51°27.416 2°44.625 -999 282 11.9 101500 46
2011-04-20 07:57:16 51°27.429 2°44.615 -999 344 11.9 101500 46
2011-04-20 07:57:21 51°27.446 2°44.603 -999 343 11.9 101500 46
2011-04-20 07:57:27 51°27.465 2°44.588 -999 343 11.9 101500 46
2011-04-20 07:57:32 51°27.482 2°44.575 -999 343 11.9 101500 46
2011-04-20 07:57:36 51°27.495 2°44.565 -999 341 11.9 101500 46
2011-04-20 07:57:41 51°27.511 2°44.552 -999 342 11.9 101500 46
2011-04-20 07:57:46 51°27.527 2°44.539 -999 341 11.9 101500 46
2011-04-20 07:57:52 51°27.547 2°44.525 -999 342 11.9 101500 46
2011-04-20 07:57:56 51°27.56 2°44.515 -999 341 11.9 101500 46
2011-04-20 07:58:01 51°27.576 2°44.502 -999 342 11.9 101500 46
2011-04-20 07:58:06 51°27.592 2°44.49 -999 341 11.9 101500 46
2011-04-20 07:58:12 51°27.612 2°44.475 -999 342 11.9 101500 46
2011-04-20 07:58:16 51°27.625 2°44.465 -999 341 11.9 101500 46
2011-04-20 07:58:21 51°27.641 2°44.452 -999 343 11.9 101500 46
2011-04-20 07:58:26 51°27.658 2°44.44 -999 341 11.9 101500 46
2011-04-20 07:58:32 51°27.677 2°44.425 -999 342 11.9 101500 46
2011-04-20 07:58:36 51°27.69 2°44.415 -999 342 11.9 101500 46
2011-04-20 07:58:41 51°27.706 2°44.403 -999 342 11.9 101500 46
2011-04-20 07:58:46 51°27.723 2°44.39 -999 342 11.9 101500 46
2011-04-20 07:58:52 51°27.742 2°44.376 -999 343 11.9 101500 46
2011-04-20 07:58:56 51°27.755 2°44.366 -999 341 12 101500 46
2011-04-20 07:59:01 51°27.772 2°44.354 -999 342 12 101500 46
2011-04-20 07:59:07 51°27.791 2°44.339 -999 342 11.9 101500 46
2011-04-20 07:59:12 51°27.808 2°44.328 -999 281 11.9 101500 46
2011-04-20 07:59:16 51°27.821 2°44.317 -999 342 11.9 101500 46
2011-04-20 07:59:21 51°27.837 2°44.306 -999 340 11.9 101500 46
2011-04-20 07:59:27 51°27.857 2°44.29 -999 342 11.9 101500 45
2011-04-20 07:59:32 51°27.873 2°44.279 -999 342 11.9 101500 45
2011-04-20 07:59:36 51°27.886 2°44.268 -999 341 11.9 101500 46
2011-04-20 07:59:41 51°27.903 2°44.257 -999 342 11.9 101500 46
2011-04-20 07:59:46 51°27.919 2°44.244 -999 341 11.9 101510 46
2011-04-20 07:59:52 51°27.939 2°44.231 -999 343 11.9 101510 46
2011-04-20 07:59:56 51°27.952 2°44.22 -999 342 11.9 101500 46
2011-04-20 08:00:01 51°27.968 2°44.208 -999 344 11.9 101500 46
2011-04-20 08:00:06 51°27.985 2°44.196 -999 341 11.9 101500 46
2011-04-20 08:00:12 51°28.004 2°44.181 -999 343 11.9 101500 46
2011-04-20 08:00:16 51°28.017 2°44.173 -999 342 11.9 101500 46
2011-04-20 08:00:21 51°28.033 2°44.159 -999 344 11.9 101500 46
2011-04-20 08:00:26 51°28.05 2°44.148 -999 340 11.9 101500 46
2011-04-20 08:00:32 51°28.069 2°44.131 -999 343 11.9 101500 46
2011-04-20 08:00:36 51°28.083 2°44.123 -999 342 11.9 101500 46
2011-04-20 08:00:41 51°28.099 2°44.109 -999 342 11.9 101500 46
2011-04-20 08:00:46 51°28.115 2°44.098 -999 343 11.9 101500 46
2011-04-20 08:00:52 51°28.135 2°44.082 -999 341 11.9 101500 46
2011-04-20 08:00:56 51°28.148 2°44.073 -999 343 12 101500 46
2011-04-20 08:01:01 51°28.164 2°44.061 -999 340 12 101500 46
2011-04-20 08:01:07 51°28.184 2°44.046 -999 343 12 101500 46
2011-04-20 08:01:12 51°28.2 2°44.034 -999 282 12 101500 46
2011-04-20 08:01:16 51°28.213 2°44.024 -999 344 12 101500 46
2011-04-20 08:01:21 51°28.23 2°44.013 -999 339 12 101500 46
2011-04-20 08:01:27 51°28.249 2°43.998 -999 343 12 101500 46
2011-04-20 08:01:32 51°28.266 2°43.986 -999 339 12 101500 46
2011-04-20 08:01:36 51°28.278 2°43.975 -999 344 12 101510 46
2011-04-20 08:01:41 51°28.295 2°43.964 -999 340 12 101510 46
2011-04-20 08:01:47 51°28.314 2°43.949 -999 343 12 101510 46
2011-04-20 08:01:52 51°28.331 2°43.937 -999 341 12 101510 46
2011-04-20 08:01:56 51°28.344 2°43.927 -999 342 12 101510 46
2011-04-20 08:02:01 51°28.36 2°43.916 -999 341 12 101510 46
2011-04-20 08:02:06 51°28.376 2°43.903 -999 343 12 101500 45
2011-04-20 08:02:12 51°28.396 2°43.889 -999 342 12 101500 45
2011-04-20 08:02:16 51°28.409 2°43.878 -999 344 12 101510 46
2011-04-20 08:02:21 51°28.426 2°43.867 -999 341 12 101510 46